Location: Isle-of-Palms
(32.8045°N, 79.7399°W)
Time: 23:28:41
(UTC+00:00)

Hubble Space Telescope - Pass Details

Date: 16 August 2022
Orbit: 532 x 535 km, 28.5° (Epoch: 23 September)

Event Time Altitude Azimuth Distance (km) Brightness Sun altitude
Rises 00:28:22 0° 266° (W) 2,665 5.7 -5.7°
Reaches altitude 10° 00:30:49 10° 255° (WSW) 1,775 4.4 -6.2°
Maximum altitude 00:34:24 29° 194° (SSW) 985 2.1 -6.9°
Drops below altitude 10° 00:37:59 10° 133° (SE) 1,773 2.8 -7.6°
Enters shadow 00:38:22 - 131° (SE) 1,904 3.0 -7.7°
